Regional Weather Roundup
Issued by NWS

Home | Current Version | Previous Version | Graphics & Text | Print | Product List | Glossary On
Versions: 1 2 3 4 5 6 7 8 9 10 11 12 13 14 15 16 17 18 19 20 21 22 23 24 25 26 27 28 29 30 31 32 33 34 35 36 37 38 39 40 41 42 43 44 45 46 47 48 49 50
000
ASUS43 KBIS 231010
RWRND

NORTH DAKOTA REGIONAL WEATHER ROUNDUP
NATIONAL WEATHER SERVICE BISMARCK ND
500 AM CDT MON OCT 23 2017

NOTE: "FAIR" INDICATES FEW OR NO CLOUDS BELOW 12,000 FEET WITH NO
SIGNIFICANT WEATHER AND/OR OBSTRUCTIONS TO VISIBILITY.


NDZ001>003-009>011-017-231100-
NORTHWEST NORTH DAKOTA

CITY           SKY/WX    TMP DP  RH WIND       PRES   REMARKS
WILLISTON      CLEAR     43  34  70 SW10      29.98R
MINOT          PTCLDY    43  36  76 W23G29    29.85R
MINOT AFB      CLOUDY    42  36  80 NW23G29   29.84R
$$

NDZ018>021-031>035-040>046-231100-
SOUTHWEST NORTH DAKOTA

CITY           SKY/WX    TMP DP  RH WIND       PRES   REMARKS
BISMARCK       PTCLDY    49  38  65 W22G28    29.88R
DICKINSON      CLEAR     45  35  68 W25G32    29.96R
GARRISON         N/A     43  37  79 NW12      29.87R
HETTINGER ARPT PTCLDY    42  34  73 W21G26    30.02R
$$

NDZ004>008-012>016-024-026-027-054-231100-
NORTHEAST NORTH DAKOTA

CITY           SKY/WX    TMP DP  RH WIND       PRES   REMARKS
GRAND FORKS    CLOUDY    50  40  68 W15       29.64R
GRND FRKS AFB  CLOUDY    49  37  64 NW15G24   29.65R
DEVILS LAKE    PTCLDY    42  36  79 W25G32    29.71R
$$

NDZ022-023-025-028>030-036>039-047>053-231100-
SOUTHEAST NORTH DAKOTA

CITY           SKY/WX    TMP DP  RH WIND       PRES   REMARKS
FARGO          CLOUDY    51  44  77 W12       29.68R
JAMESTOWN      PTCLDY    48  35  60 W23G31    29.75R
$$




USA.gov is the U.S. government's official web portal to all federal, state and local government web resources and services.